Location: Bremen
(53.0793°N, 8.8017°E)
Time: 11:00:13
(UTC+01:00)

deb Explorer IX - Pass Details

Date: 08 December 2021
Orbit: 544 x 1082 km, 38.8° (Epoch: 14 January)

Event Time Altitude Azimuth Distance (km) Brightness Sun altitude
Rises 11:13:14 0° 240° (WSW) 3,080 ? 12.9°
Reaches altitude 10° 11:16:54 10° 214° (SW) 2,044 ? 13.1°
Maximum altitude 11:19:08 13° 185° (S) 1,766 ? 13.1°
Drops below altitude 10° 11:21:16 10° 156° (SSE) 1,925 ? 13.2°
Sets 11:24:30 0° 129° (SE) 2,755 ? 13.3°
